Lapse_Rate
5.5 5.5 5.5 5.3 5.2 5.2 5.0 4.9 4.7 4.5 4.4 4.3 4.3 4.4 4.4 4.5 4.7 4.7 4.8 4.8 4.8 5.0 5.2 5.3 5.5 5.5 5.8 5.9 6.0 6.0 5.9 5.9 5.8 5.8 5.8 5.8 5.8 5.7 5.6 5.6 5.4 5.2 5.1
5.4 5.7 5.3 5.2 5.4 5.2 5.1 5.0 4.8 4.7 4.6 4.4 4.4 4.4 4.5 4.6 4.8 4.6 4.7 4.8 4.9 5.0 5.2 5.4 5.4 5.5 5.6 5.7 5.8 5.9 5.8 5.9 5.9 5.9 5.8 5.6 5.7 5.5 5.4 5.4 5.4 5.4 5.6
5.6 5.6 5.2 5.0 5.3 4.9 5.1 5.0 4.9 4.8 4.7 4.6 4.6 4.6 4.7 4.7 4.9 5.0 4.8 5.0 5.1 5.0 5.2 5.4 5.5 5.4 5.5 5.6 5.7 5.7 5.6 5.7 5.7 5.7 5.7 5.7 5.7 5.7 5.6 5.7 5.7 5.2 5.4
5.1 4.8 5.1 5.2 4.9 5.0 5.3 5.1 5.0 4.9 4.7 4.7 4.7 4.7 4.8 4.8 5.1 5.0 5.1 5.3 5.3 5.4 5.4 5.5 5.5 5.5 5.5 5.5 5.5 5.6 5.6 5.7 5.6 5.6 5.6 5.8 5.8 5.8 5.7 5.5 5.7 5.4 5.5
5.3 5.2 5.0 4.6 4.9 4.9 5.6 5.2 5.1 4.9 4.8 4.7 4.8 4.8 4.9 5.0 5.0 5.1 5.4 5.6 5.7 5.6 5.6 5.6 5.8 5.7 5.7 5.5 5.5 5.5 5.6 5.6 5.6 5.6 5.6 5.6 5.5 5.5 5.6 5.6 5.6 5.4 5.6
5.9 5.2 5.5 5.1 4.8 5.2 5.1 5.1 5.1 5.0 5.0 5.0 4.9 5.0 5.1 5.2 5.3 5.4 5.5 5.6 5.8 6.0 5.9 5.8 6.0 5.9 5.9 5.7 5.6 5.6 5.6 5.6 5.5 5.5 5.4 5.5 5.3 5.3 5.5 5.6 5.6 5.5 5.6
5.4 4.9 5.2 5.4 5.2 5.2 5.3 5.4 5.4 5.2 5.1 5.1 5.1 5.2 5.2 5.2 5.3 5.4 5.9 5.7 6.0 6.2 6.0 5.9 6.1 6.0 5.9 5.8 5.7 5.7 5.6 5.6 5.5 5.4 5.3 5.3 5.2 5.3 5.3 5.5 5.5 5.4 5.4
5.4 5.1 5.0 5.6 5.4 5.4 5.4 5.4 5.7 5.7 5.7 5.6 5.5 5.3 5.4 5.7 6.7 6.8 5.8 5.8 5.8 6.5 6.1 6.0 6.0 5.9 5.8 5.7 5.8 5.6 5.5 5.4 5.3 5.2 5.2 5.3 5.3 5.4 5.5 5.6 5.6 5.6 5.6
5.4 4.8 5.3 5.4 5.2 5.3 5.4 5.6 5.5 5.8 5.9 5.8 5.7 5.7 6.0 6.3 7.1 6.8 6.3 6.0 6.2 6.4 6.2 5.8 5.6 5.9 5.7 5.8 5.7 5.6 5.4 5.3 5.1 5.0 5.2 5.4 5.5 5.4 5.6 5.8 5.7 5.6 5.5
5.6 5.0 4.7 5.1 5.1 5.1 5.4 5.7 6.1 6.0 6.1 6.0 5.9 5.7 6.5 6.7 6.1 6.6 6.1 6.1 5.8 5.9 5.6 5.4 5.6 5.6 5.5 5.5 5.5 5.5 5.3 5.4 5.2 5.1 5.2 5.3 5.8 5.6 5.9 5.7 5.4 5.4 5.7
5.3 5.5 4.6 4.6 5.0 5.0 5.3 5.5 5.6 5.7 5.8 5.5 5.9 5.9 5.6 5.7 5.6 5.7 5.7 6.0 5.8 5.7 5.3 5.4 5.4 5.4 5.3 5.2 5.2 5.3 5.3 5.4 5.4 5.4 5.3 5.4 5.9 5.6 5.5 5.6 5.7 5.7 6.0
5.4 5.2 4.9 5.0 5.1 4.5 4.6 4.9 5.5 5.6 5.7 5.4 5.2 5.1 5.0 5.5 5.0 5.3 5.3 5.3 5.5 5.2 4.9 5.2 5.3 5.2 5.2 4.8 4.8 4.8 5.2 5.6 5.7 5.8 5.8 5.8 5.9 5.8 5.7 5.9 6.1 6.1 6.2
5.0 5.0 5.0 5.0 4.8 4.6 4.8 5.1 5.2 5.1 5.2 5.1 5.2 5.3 5.1 5.5 5.6 5.9 5.9 5.6 5.6 5.7 5.4 5.1 5.0 5.3 5.1 4.8 4.8 5.1 5.1 5.6 5.7 5.6 5.7 5.8 5.7 5.8 5.7 5.8 6.0 6.0 6.4
5.1 5.2 4.9 5.2 5.0 4.6 4.8 4.9 4.9 4.9 4.8 5.1 5.0 5.1 5.2 5.5 5.7 5.7 5.7 5.3 5.4 5.8 5.3 5.3 5.2 5.0 4.8 4.9 5.1 5.3 5.6 5.6 5.6 5.6 5.6 5.7 5.7 5.8 5.8 5.8 6.0 6.4 6.6
4.9 4.9 4.9 5.2 5.0 4.8 4.7 4.7 4.9 5.0 5.0 4.9 5.2 5.3 5.2 5.5 5.5 5.4 5.3 5.4 5.5 5.6 5.2 5.3 5.1 4.9 5.0 5.0 5.3 5.5 5.3 5.4 5.6 5.6 5.8 5.9 5.8 5.7 6.0 6.0 6.2 6.3 6.7
4.8 4.8 4.9 5.0 5.1 5.2 5.2 5.4 5.2 5.3 5.1 5.2 5.3 5.2 5.7 5.6 5.7 5.4 5.3 5.2 5.5 5.5 5.1 4.9 4.7 5.0 5.0 5.4 5.8 5.4 5.4 5.5 5.5 5.7 5.9 6.0 5.8 6.0 6.2 6.3 6.3 6.4 6.6
5.3 5.1 4.9 5.0 5.0 5.2 5.2 5.3 5.3 5.3 5.2 5.5 5.6 5.3 5.4 5.5 5.2 5.3 5.2 5.0 4.8 4.9 4.9 5.1 5.1 5.2 6.0 6.2 6.1 6.1 5.8 5.6 5.7 5.7 5.9 5.9 5.9 6.0 6.2 6.3 6.3 6.3 6.6
5.4 5.4 5.5 5.4 5.3 5.4 5.3 5.4 5.3 5.4 5.4 5.7 5.4 5.5 5.6 5.4 5.5 5.4 5.4 5.4 5.4 5.4 5.5 5.7 6.0 6.2 6.3 6.2 6.3 6.0 5.8 5.8 5.9 5.9 6.0 6.0 6.0 6.2 6.3 6.3 6.3 6.4 6.6
5.8 5.9 6.0 5.8 5.8 5.6 5.6 5.7 5.6 5.6 5.6 5.7 5.6 5.6 5.5 5.5 5.7 5.6 5.5 5.8 5.9 5.5 5.8 5.6 5.7 6.2 5.8 5.8 5.7 5.7 5.8 5.9 5.9 6.0 6.0 5.9 6.1 6.2 6.3 6.3 6.4 6.5 6.6
5.3 5.4 5.6 5.7 5.7 5.7 5.8 6.2 6.2 6.2 6.1 6.3 6.2 6.0 6.0 6.1 6.0 5.8 5.6 5.7 5.7 5.3 5.6 5.7 5.6 5.6 5.4 5.5 5.4 5.6 5.9 5.9 6.0 5.9 6.0 6.1 6.3 6.4 6.3 6.3 6.3 6.5 6.6
5.4 5.4 5.5 5.6 5.6 5.8 6.0 6.1 5.9 6.0 6.0 6.1 6.0 6.0 6.0 6.0 5.9 5.7 5.7 5.8 5.8 5.6 5.7 5.5 5.5 5.6 5.4 5.4 5.4 5.5 5.7 6.0 6.0 5.9 6.1 6.3 6.3 6.4 6.4 6.3 6.4 6.4 6.4
5.5 5.5 5.4 5.5 5.6 5.7 5.8 5.9 6.2 6.3 6.1 6.1 6.2 6.2 6.1 6.1 6.0 6.0 5.7 5.9 5.6 5.8 5.6 5.7 5.6 5.4 5.5 5.5 5.4 5.7 5.9 5.8 6.0 6.1 6.2 6.3 6.5 6.5 6.3 6.2 6.3 6.1 6.0
5.1 5.3 5.3 5.3 5.6 5.6 5.6 5.6 5.6 5.8 6.1 6.2 6.2 6.3 6.3 6.3 6.2 6.3 6.3 6.2 6.3 6.2 5.9 5.7 5.9 5.4 6.0 5.6 5.5 5.8 5.8 5.9 6.0 6.2 6.3 6.5 6.5 6.4 6.3 6.1 6.0 5.9 5.9
4.7 5.0 5.3 5.4 5.4 5.4 5.4 5.5 5.6 5.7 5.6 5.7 6.2 6.4 6.4 6.4 6.5 6.2 6.3 6.1 6.0 6.2 5.8 6.0 5.8 5.6 5.9 5.8 5.8 5.9 5.9 5.9 6.1 6.3 6.4 6.5 6.5 6.5 6.1 6.1 5.9 5.8 6.0
5.2 5.3 5.2 5.2 5.4 5.5 5.7 5.5 5.3 5.3 5.5 5.8 5.6 5.7 6.3 6.5 6.3 6.2 5.7 6.0 6.3 6.1 6.1 6.0 6.1 5.7 6.0 5.9 5.9 5.9 6.0 6.0 6.1 6.4 6.6 6.5 6.4 6.4 6.1 5.9 5.8 6.0 6.2
4.5 4.8 4.8 4.7 4.9 5.1 5.3 5.7 5.7 5.7 5.7 5.5 5.8 5.8 5.7 6.1 6.5 6.0 5.6 5.9 5.9 5.8 6.2 5.6 5.8 5.8 5.8 5.8 5.9 6.0 6.0 6.2 6.3 6.7 6.6 6.7 6.5 6.3 6.1 5.8 5.9 6.1 6.3
Wind_Speed
3 5 5 9 11 11 10 8 9 8 9 10 11 10 9 10 10 14 14 16 15 14 13 12 11 11 10 10 9 9 9 9 8 7 6 5 4 3 2 2 2 3 3
7 3 4 4 8 12 10 10 7 5 5 8 6 10 11 12 11 12 15 17 17 16 15 13 12 12 11 11 11 11 13 14 12 11 9 8 7 6 6 5 5 5 5
13 9 5 6 9 13 12 10 9 8 4 5 6 7 9 11 9 11 15 17 18 18 17 14 13 12 11 11 10 11 11 13 14 14 12 10 9 8 9 8 7 9 8
19 14 9 8 13 12 11 5 5 4 4 4 4 5 4 6 9 10 12 14 17 16 19 16 14 13 11 10 9 10 10 9 12 12 11 10 8 6 8 9 8 10 10
23 17 9 9 14 9 7 8 5 5 4 4 4 4 4 4 5 8 9 12 16 16 15 17 16 12 10 9 8 8 8 8 11 10 9 6 5 3 1 1 2 4 5
21 18 11 10 12 7 8 7 6 5 3 4 4 4 4 4 4 4 5 9 11 13 16 13 9 6 7 6 3 5 7 9 9 10 9 8 7 5 3 1 2 3 4
17 14 10 9 9 10 11 10 4 6 5 4 3 2 2 5 5 5 5 4 6 12 13 12 10 8 5 5 3 4 5 4 6 9 9 8 7 5 4 2 3 4 7
14 10 10 10 11 8 7 8 8 3 4 5 4 2 2 2 3 5 3 3 6 10 9 11 12 9 7 5 4 4 4 4 6 9 10 8 7 5 3 2 3 5 7
11 11 10 10 9 9 8 8 8 8 6 4 4 4 2 4 2 1 2 4 6 4 5 10 11 11 9 7 4 3 3 4 5 9 10 10 8 6 3 1 3 7 9
12 11 8 9 11 9 9 10 9 8 5 6 2 1 2 3 3 0 1 2 3 2 5 3 8 11 11 9 7 4 1 0 1 8 9 10 10 6 2 3 6 8 10
9 8 7 7 5 3 5 7 7 7 5 6 4 3 2 2 2 2 2 2 3 3 5 5 6 9 12 11 8 5 2 2 2 3 7 9 8 5 2 3 6 7 8
3 9 9 8 7 3 4 6 6 6 8 4 7 8 7 5 6 4 3 3 8 6 4 4 5 6 11 12 10 8 5 6 4 3 4 8 8 5 2 3 5 6 9
4 4 4 7 4 4 4 8 7 6 6 5 6 6 5 4 3 5 4 3 3 1 2 3 2 6 8 13 11 10 7 5 5 4 2 8 6 5 4 4 6 7 9
2 3 4 4 4 5 6 7 5 5 7 5 7 8 6 4 4 3 6 5 2 3 2 4 2 4 7 10 11 10 8 8 9 7 9 8 6 4 4 4 4 5 8
1 4 5 6 7 9 9 9 7 7 6 7 9 9 6 5 4 3 3 8 8 5 5 3 3 2 7 9 10 9 7 6 7 7 6 5 4 4 2 3 5 6 7
4 5 7 9 10 10 11 9 7 6 6 5 5 6 8 5 5 4 3 2 1 2 3 2 1 3 7 8 10 9 8 7 5 4 5 3 1 1 1 2 3 4 6
5 4 4 5 7 9 10 9 9 8 9 7 7 8 9 5 6 6 5 4 4 3 4 1 2 2 3 5 6 9 7 4 3 2 3 3 3 1 2 1 1 4 7
5 5 5 5 5 5 7 9 11 10 12 12 12 10 10 6 10 8 7 8 7 4 3 4 2 2 3 3 4 4 4 3 4 4 4 6 5 5 5 3 1 3 5
6 6 5 5 5 4 5 5 8 10 12 14 13 13 12 11 11 8 8 7 6 4 3 3 3 2 2 2 2 2 3 4 6 6 5 6 5 7 7 5 2 1 3
6 6 6 5 5 6 5 6 6 5 6 8 9 11 12 12 13 11 10 10 7 7 4 4 3 3 2 2 3 3 2 2 3 5 7 7 7 6 7 7 4 1 2
9 8 7 6 6 5 4 6 6 5 6 6 5 6 7 9 11 12 8 9 9 7 4 4 3 3 3 3 6 3 4 3 3 3 3 3 5 5 6 8 5 2 3
6 7 9 8 7 5 10 11 8 6 5 5 6 5 6 9 11 15 15 14 13 11 9 5 3 4 6 4 4 4 3 2 2 6 4 2 7 3 6 7 5 4 3
4 4 5 7 8 7 11 12 12 5 5 5 6 5 4 3 7 7 11 12 11 13 10 9 8 6 5 6 7 4 4 4 4 3 3 2 3 3 3 4 4 4 4
7 7 6 6 7 7 14 12 13 6 5 7 6 6 6 6 5 5 5 6 6 6 8 6 7 6 5 7 7 6 6 4 2 2 3 2 1 2 1 4 5 6 5
7 7 7 7 7 10 16 15 11 5 6 7 6 5 7 7 10 12 7 6 4 4 3 6 7 10 11 11 11 6 4 5 2 3 3 3 2 2 1 1 5 6 7
7 6 7 6 9 9 15 15 11 4 6 5 5 5 11 8 15 18 9 9 8 6 5 5 4 4 8 10 18 7 7 7 3 1 4 4 3 3 1 1 1 3 4
Wind_Direction
266 169 158 174 172 163 179 181 193 201 209 215 225 225 231 237 205 203 204 205 205 205 210 215 214 219 219 229 236 236 233 233 226 222 224 227 241 257 260 274 313 323 335
178 188 173 191 166 168 197 192 197 204 215 209 227 224 221 228 198 203 202 209 216 212 218 220 227 231 236 240 245 241 235 231 229 225 225 233 241 252 260 264 276 276 272
189 197 205 198 194 182 197 211 212 215 226 223 223 212 211 217 212 209 204 206 219 221 223 221 230 242 248 254 258 258 247 244 237 227 223 231 239 248 258 258 258 273 285
192 192 202 203 208 194 195 208 202 211 223 203 223 227 218 219 209 206 207 209 215 220 225 227 230 238 250 259 270 272 268 256 239 224 222 230 240 254 269 266 274 277 275
191 189 194 207 200 198 197 207 209 188 197 206 214 222 222 217 221 219 199 209 218 224 220 225 232 238 247 260 281 288 267 258 245 215 210 195 173 188 143 104 345 306 310
195 185 189 193 198 195 207 199 190 197 179 190 204 212 223 227 226 214 217 215 212 211 219 210 211 219 245 248 270 309 287 265 260 198 189 165 160 157 165 143 46 8 347
193 200 186 189 192 197 203 198 177 185 215 181 118 281 276 245 239 223 216 185 193 177 188 166 168 164 132 113 58 357 332 264 190 182 165 164 164 158 141 89 23 354 344
199 187 194 190 191 194 197 193 191 173 190 177 163 125 228 291 251 235 227 184 187 154 174 161 164 147 137 123 87 42 10 256 197 163 160 166 163 151 125 48 351 343 333
199 196 194 194 193 191 199 196 197 184 196 191 200 152 160 217 167 341 243 197 173 169 172 163 157 141 140 134 134 102 52 44 172 174 177 179 166 160 133 15 330 335 329
232 205 202 203 197 198 196 199 200 200 156 181 133 319 4 170 168 126 11 35 14 219 175 169 145 137 148 140 142 134 126 143 211 201 201 197 175 152 104 340 325 343 338
235 229 231 230 207 205 240 206 194 204 195 176 188 144 203 269 353 156 204 152 62 31 303 154 172 147 159 156 143 137 124 229 253 251 233 194 175 132 92 327 322 343 348
168 209 210 220 222 220 264 259 216 214 216 181 215 186 187 179 196 179 165 225 196 175 168 262 159 152 153 152 148 129 125 102 129 155 192 156 139 115 76 319 317 320 322
179 158 166 196 190 187 221 228 210 205 206 207 217 233 242 225 156 211 179 176 169 183 179 168 146 148 157 157 146 145 138 127 121 133 173 139 107 81 44 348 328 325 322
217 133 204 176 192 203 223 240 240 218 193 203 217 227 225 203 192 181 194 170 169 193 183 151 110 155 161 151 146 137 126 113 90 98 110 106 93 81 28 354 338 358 353
230 214 209 214 230 230 228 231 225 216 200 210 222 223 212 206 194 193 206 191 194 153 203 164 135 141 135 143 145 136 131 118 107 107 104 94 86 70 28 9 6 9 352
227 239 243 238 231 225 225 212 221 213 209 208 207 222 227 207 191 182 195 241 253 92 125 109 148 154 156 148 151 140 147 149 152 144 116 101 92 95 103 26 2 2 358
355 335 306 281 238 224 220 210 217 226 223 226 212 215 219 185 199 197 190 190 193 143 160 90 101 139 130 149 145 149 143 144 147 151 178 185 208 235 205 187 16 348 3
360 349 323 303 291 258 247 232 226 221 219 220 217 210 216 193 201 200 193 199 189 164 144 148 144 138 147 161 152 145 145 193 216 230 247 250 243 232 208 208 78 351 360
348 340 329 312 304 323 310 272 242 223 220 220 218 208 215 196 208 199 203 195 185 168 154 135 142 119 112 141 128 132 159 186 220 219 233 237 238 236 222 203 186 319 9
356 343 323 319 336 332 301 281 272 264 243 227 214 214 217 207 215 201 198 194 174 172 157 142 140 137 145 142 144 157 176 193 210 212 229 227 226 216 250 194 193 228 342
354 347 342 336 330 311 293 294 287 261 245 240 233 223 211 203 202 205 194 191 173 173 153 152 146 149 155 163 189 165 178 169 210 197 210 222 212 218 235 204 210 227 303
349 345 340 333 331 315 304 303 285 272 262 234 236 231 228 214 209 197 200 182 180 174 183 167 159 185 184 175 158 155 140 128 216 199 173 241 198 210 218 209 213 233 276
303 312 319 330 333 312 308 305 297 276 262 241 231 209 207 225 199 190 183 179 186 186 189 183 180 191 169 166 150 161 149 157 196 164 143 198 177 180 194 219 211 232 243
329 321 315 308 318 314 314 313 305 275 261 261 237 214 194 199 204 176 154 170 180 183 178 183 182 171 171 167 159 164 173 141 86 120 147 180 175 142 180 222 241 229 221
329 323 320 319 317 314 315 309 307 279 263 257 263 242 218 190 190 176 164 175 165 159 139 135 153 166 168 167 149 127 158 156 165 194 175 158 163 127 142 267 240 237 209
314 315 303 292 310 314 310 312 309 273 250 253 250 252 245 221 196 186 176 170 181 191 150 119 115 145 168 178 176 178 165 175 133 160 199 153 148 144 6 223 269 251 192